Weather History for KSIF - July, 2013

Change the Weather History Date:

Friday, July 5, 2013

  Actual Average (KGSO) Record (KGSO)
Temperature  
Mean Temperature 76 °F 78 °F  
Max Temperature 86 °F 88 °F 98 °F (1990)
Min Temperature 67 °F 69 °F 48 °F (1933)
Degree Days  
Heating Degree Days 0 0  
Month to date heating degree days 0  
Since 1 June heating degree days 6  
Since 1 July heating degree days 0  
Cooling Degree Days 12 13  
Month to date cooling degree days 65  
Year to date cooling degree days 531  
Since 1 June cooling degree days 372  
Growing Degree Days 26 (Base 50)    
Moisture  
Dew Point 71 °F    
Average Humidity 87    
Maximum Humidity 100    
Minimum Humidity 61    
Precipitation  
Precipitation 0.26 in 0.13 in 1.87 in (1922)
Month to date precipitation 0.63  
Year to date precipitation 21.06  
Sea Level Pressure  
Sea Level Pressure 30.24 in    
Wind  
Wind Speed 2 mph (SSW)    
Max Wind Speed 10 mph    
Max Gust Speed -    
Visibility 8 miles    
Events Rain    
T = Trace of Precipitation, MM = Missing Value Source: NWS Daily Summary

Daily Weather History Graph

Daily Weather History Graph

Search for Another Location

Airport or City:

Trip Planner

Search our weather history database for the weather conditions in past years. The results will help you decide how hot, cold, wet, or windy it might be!

Date:

Astronomy

Jul. 05, 2013 Rise Set
Actual Time 6:07 AM EDT 8:40 PM EDT
Civil Twilight 5:36 AM EDT 9:10 PM EDT
Nautical Twilight 4:59 AM EDT 9:48 PM EDT
Astronomical Twilight 4:17 AM EDT 10:29 PM EDT
Moon 4:03 AM EDT (7/5) 6:35 PM EDT (7/5)
Length of Visible Light 15h 34m
Length of Day
14h 33m
Waning Crescent, 6% of the Moon is Illuminated
Jul 5
Waning Crescent
Jul 8
New
Jul 15
First Quarter
Jul 22
Full
Jul 29
Last Quarter

Hourly Weather History & Observations

Time (EDT) Temp. Heat Index Dew Point Humidity Pressure Visibility Wind Dir Wind Speed Gust Speed Precip Events Conditions
12:15 AM 69.6 °F - 69.3 °F 99% 30.26 in 3.0 mi Calm Calm - N/A   Mostly Cloudy
12:35 AM 69.3 °F - 69.1 °F 99% 30.26 in 3.0 mi Calm Calm - N/A   Scattered Clouds
12:55 AM 68.9 °F - 68.7 °F 99% 30.26 in 3.0 mi Calm Calm - N/A   Clear
1:15 AM 68.0 °F - 67.8 °F 99% 30.26 in 5.0 mi Calm Calm - N/A   Clear
1:35 AM 68.0 °F - 67.6 °F 99% 30.26 in 3.0 mi Calm Calm - N/A   Clear
1:55 AM 67.5 °F - 67.5 °F 100% 30.25 in 4.0 mi Calm Calm - N/A   Clear
2:15 AM 68.0 °F - 67.8 °F 99% 30.25 in 2.0 mi Calm Calm - N/A   Clear
2:35 AM 67.6 °F - 67.6 °F 100% 30.25 in 2.5 mi Calm Calm - N/A   Clear
2:55 AM 67.6 °F - 67.6 °F 100% 30.25 in 4.0 mi Calm Calm - N/A   Mostly Cloudy
3:15 AM 68.9 °F - 68.9 °F 100% 30.25 in 4.0 mi Calm Calm - N/A   Overcast
3:35 AM 70.2 °F - 70.2 °F 100% 30.25 in 5.0 mi Calm Calm - N/A   Overcast
3:55 AM 70.3 °F - 70.2 °F 99% 30.24 in 4.0 mi Calm Calm - N/A   Overcast
4:15 AM 70.7 °F - 70.3 °F 99% 30.24 in 7.0 mi Calm Calm - N/A   Mostly Cloudy
4:35 AM 70.7 °F - 70.7 °F 100% 30.24 in 7.0 mi Calm Calm - N/A   Mostly Cloudy
4:55 AM 71.1 °F - 70.9 °F 99% 30.25 in 7.0 mi Calm Calm - N/A   Overcast
5:15 AM 71.1 °F - 70.7 °F 99% 30.25 in 7.0 mi Calm Calm - N/A   Mostly Cloudy
5:35 AM 69.6 °F - 69.3 °F 99% 30.25 in 4.0 mi Calm Calm - N/A   Scattered Clouds
5:55 AM 69.1 °F - 68.9 °F 99% 30.25 in 4.0 mi Calm Calm - N/A   Mostly Cloudy
6:15 AM 68.9 °F - 68.9 °F 100% 30.25 in 1.5 mi Calm Calm - N/A   Mostly Cloudy
6:35 AM 68.9 °F - 68.7 °F 99% 30.25 in 1.8 mi Calm Calm - N/A   Mostly Cloudy
7:15 AM 71.2 °F - 71.2 °F 100% 30.26 in 4.0 mi Calm Calm - N/A   Scattered Clouds
7:35 AM 72.5 °F - 72.3 °F 99% 30.27 in 7.0 mi Calm Calm - N/A   Scattered Clouds
7:55 AM 73.9 °F - 72.7 °F 96% 30.27 in 7.0 mi South 3.5 mph - N/A   Mostly Cloudy
8:15 AM 74.5 °F - 72.5 °F 94% 30.28 in 10.0 mi SSW 3.5 mph - N/A   Overcast
8:55 AM 76.3 °F - 72.5 °F 88% 30.28 in 10.0 mi SSE 5.8 mph - N/A   Mostly Cloudy
9:15 AM 77.7 °F - 73.2 °F 86% 30.28 in 10.0 mi SSE 8.1 mph - N/A   Overcast
9:35 AM 77.9 °F - 72.3 °F 83% 30.28 in 10.0 mi South 6.9 mph - N/A   Mostly Cloudy
9:55 AM 79.9 °F - 72.3 °F 78% 30.28 in 10.0 mi South 6.9 mph - N/A   Mostly Cloudy
10:15 AM 79.7 °F - 72.5 °F 79% 30.28 in 10.0 mi South 5.8 mph - N/A   Mostly Cloudy
11:35 AM 82.0 °F 86.7 °F 71.8 °F 71% 30.28 in 10.0 mi South 8.1 mph - N/A   Mostly Cloudy
11:55 AM 80.6 °F 84.9 °F 72.3 °F 76% 30.28 in 5.0 mi SSW 5.8 mph - 0.01 in Rain Rain
12:15 PM 80.8 °F 85.2 °F 72.7 °F 76% 30.27 in 10.0 mi SSW 5.8 mph - N/A   Mostly Cloudy
12:35 PM 82.4 °F 87.2 °F 71.8 °F 70% 30.27 in 10.0 mi SSW 8.1 mph - N/A   Scattered Clouds
1:15 PM 84.0 °F 89.3 °F 71.8 °F 66% 30.26 in 10.0 mi SW 5.8 mph - N/A   Clear
2:15 PM 86.5 °F 92.9 °F 72.0 °F 62% 30.24 in 10.0 mi South 8.1 mph - N/A   Scattered Clouds
2:35 PM 86.5 °F 92.5 °F 71.8 °F 61% 30.23 in 10.0 mi South 8.1 mph - N/A   Scattered Clouds
2:55 PM 84.7 °F 90.4 °F 71.8 °F 65% 30.23 in 10.0 mi SSE 6.9 mph - N/A   Scattered Clouds
3:15 PM 84.2 °F 90.3 °F 72.5 °F 68% 30.23 in 10.0 mi South 5.8 mph - N/A   Scattered Clouds
3:55 PM 84.6 °F 91.0 °F 72.9 °F 68% 30.23 in 10.0 mi SSW 9.2 mph - N/A   Clear
4:15 PM 85.1 °F 91.8 °F 73.0 °F 67% 30.22 in 10.0 mi South 10.4 mph - N/A   Scattered Clouds
4:35 PM 86.2 °F 93.0 °F 72.9 °F 64% 30.21 in 10.0 mi South 8.1 mph - N/A   Clear
4:55 PM 86.0 °F 91.8 °F 71.4 °F 62% 30.21 in 10.0 mi South 5.8 mph - N/A   Clear
5:15 PM 86.2 °F 92.2 °F 71.6 °F 62% 30.21 in 10.0 mi SSW 6.9 mph - N/A   Clear
5:35 PM 83.7 °F 88.3 °F 70.9 °F 65% 30.20 in 10.0 mi SSW 4.6 mph - N/A   Clear
5:55 PM 83.3 °F 88.7 °F 72.1 °F 69% 30.20 in 10.0 mi SSW 4.6 mph - N/A   Clear
6:15 PM 82.6 °F 88.3 °F 73.0 °F 73% 30.20 in 10.0 mi SW 3.5 mph - N/A   Clear
6:35 PM 82.4 °F 87.9 °F 73.0 °F 73% 30.20 in 10.0 mi SW 3.5 mph - N/A   Clear
6:55 PM 82.4 °F 88.2 °F 73.4 °F 74% 30.20 in 10.0 mi Calm Calm - N/A   Clear
7:15 PM 82.4 °F 87.9 °F 72.9 °F 73% 30.20 in 10.0 mi Calm Calm - N/A   Clear
7:35 PM 81.5 °F 86.7 °F 73.2 °F 76% 30.20 in 10.0 mi Calm Calm - N/A   Clear
7:55 PM 80.4 °F 85.1 °F 73.6 °F 80% 30.22 in 10.0 mi SW 3.5 mph - N/A Rain Light Rain
8:15 PM 76.1 °F - 70.2 °F 82% 30.23 in 3.0 mi SSW 6.9 mph - 0.06 in Rain Light Rain
8:35 PM 73.6 °F - 71.4 °F 93% 30.25 in 2.5 mi SSE 5.8 mph - 0.24 in Rain Heavy Rain
8:55 PM 73.0 °F - 71.6 °F 95% 30.23 in 10.0 mi Calm Calm - 0.24 in Rain Light Rain
9:15 PM 72.5 °F - 71.6 °F 97% 30.22 in 10.0 mi Calm Calm - N/A Rain Light Rain
9:35 PM 72.3 °F - 71.6 °F 98% 30.22 in 10.0 mi Calm Calm - N/A   Clear
9:55 PM 72.7 °F - 72.1 °F 98% 30.24 in 10.0 mi SW 3.5 mph - N/A   Clear
10:15 PM 72.3 °F - 71.6 °F 98% 30.24 in 10.0 mi Calm Calm - N/A   Clear
10:35 PM 71.8 °F - 71.4 °F 99% 30.24 in 10.0 mi Calm Calm - N/A   Scattered Clouds
10:55 PM 72.0 °F - 71.4 °F 98% 30.25 in 10.0 mi Calm Calm - 0.01 in   Clear
11:15 PM 71.6 °F - 70.7 °F 97% 30.25 in 10.0 mi Calm Calm - N/A   Clear
11:35 PM 71.4 °F - 70.7 °F 98% 30.25 in 10.0 mi Calm Calm - N/A   Scattered Clouds
11:55 PM 71.1 °F - 70.2 °F 97% 30.25 in 10.0 mi Calm Calm - N/A   Scattered Clouds